Radiation Dose at Monitoring Post of Fukushima Daini Nuclear Power Station
Date,Time,MP-1(microSv/h),MP-2(microSv/h),MP-3(microSv/h),MP-4(microSv/h),MP-5(microSv/h),MP-6(microSv/h),MP-7(microSv/h),Wind Direction,Wind Velocity(m/s),Rain
2018/01/11,00:00,0.341,0.207,0.341,0.320,0.305,0.171,0.101,north,7.6,No
2018/01/11,00:10,0.341,0.206,0.343,0.322,0.305,0.172,0.102,north,8.1,No
2018/01/11,00:20,0.341,0.206,0.343,0.320,0.305,0.171,0.102,north,5.9,No
2018/01/11,00:30,0.342,0.207,0.342,0.321,0.305,0.171,0.101,north-northeast,3.8,No
2018/01/11,00:40,0.340,0.207,0.343,0.321,0.307,0.172,0.101,north-northeast,3.2,No
2018/01/11,00:50,0.340,0.206,0.344,0.321,0.306,0.171,0.102,north,3.7,No
2018/01/11,01:00,0.339,0.206,0.343,0.321,0.305,0.171,0.102,north-northwest,4.2,No
2018/01/11,01:10,0.341,0.206,0.343,0.321,0.305,0.171,0.101,north,4.6,No
2018/01/11,01:20,0.341,0.206,0.342,0.322,0.305,0.171,0.102,north,5.1,No
2018/01/11,01:30,0.341,0.206,0.343,0.320,0.304,0.171,0.102,north,4.1,No
2018/01/11,01:40,0.341,0.206,0.343,0.321,0.305,0.170,0.102,north-northeast,3.2,No
2018/01/11,01:50,0.339,0.207,0.342,0.322,0.306,0.170,0.102,north-northeast,3.4,No
2018/01/11,02:00,0.340,0.207,0.342,0.321,0.304,0.171,0.102,north-northeast,2.3,No
2018/01/11,02:10,0.340,0.206,0.342,0.320,0.305,0.170,0.102,north-northeast,3.3,No
2018/01/11,02:20,0.341,0.206,0.342,0.321,0.303,0.171,0.102,north,1.9,No
2018/01/11,02:30,0.340,0.206,0.343,0.320,0.304,0.170,0.102,north-northeast,1.7,No
2018/01/11,02:40,0.341,0.206,0.342,0.321,0.305,0.171,0.102,north-northeast,2.0,No
2018/01/11,02:50,0.340,0.206,0.342,0.321,0.306,0.170,0.102,northeast,3.3,No
2018/01/11,03:00,0.341,0.206,0.342,0.320,0.304,0.171,0.102,east-northeast,1.3,No
2018/01/11,03:10,0.340,0.206,0.341,0.322,0.304,0.170,0.101,north-northeast,1.2,No
2018/01/11,03:20,0.340,0.207,0.343,0.321,0.304,0.170,0.100,northeast,1.4,No
2018/01/11,03:30,0.340,0.205,0.342,0.321,0.306,0.169,0.101,-,CALM,No
2018/01/11,03:40,0.340,0.205,0.342,0.319,0.304,0.169,0.102,-,CALM,No
2018/01/11,03:50,0.340,0.206,0.342,0.320,0.303,0.171,0.102,southwest,1.9,No
2018/01/11,04:00,0.341,0.206,0.341,0.322,0.304,0.171,0.101,west-southwest,2.7,No
2018/01/11,04:10,0.340,0.206,0.342,0.320,0.304,0.170,0.102,southwest,3.9,No
2018/01/11,04:20,0.340,0.206,0.343,0.321,0.304,0.170,0.101,west,2.8,No
2018/01/11,04:30,0.340,0.206,0.343,0.321,0.304,0.170,0.101,west,3.7,No
2018/01/11,04:40,0.341,0.205,0.343,0.321,0.304,0.170,0.101,west,3.8,No
2018/01/11,04:50,0.340,0.205,0.342,0.320,0.304,0.170,0.101,west-southwest,1.4,No
2018/01/11,05:00,0.339,0.206,0.340,0.320,0.304,0.170,0.102,southwest,0.8,No
2018/01/11,05:10,0.338,0.205,0.343,0.319,0.304,0.171,0.102,west-southwest,1.4,No
2018/01/11,05:20,0.339,0.206,0.342,0.321,0.304,0.170,0.101,northwest,1.0,No
2018/01/11,05:30,0.340,0.205,0.342,0.321,0.304,0.171,0.102,south,1.6,No
2018/01/11,05:40,0.340,0.205,0.342,0.320,0.304,0.170,0.101,south,3.0,No
2018/01/11,05:50,0.341,0.207,0.342,0.320,0.304,0.170,0.101,south,2.2,No
2018/01/11,06:00,0.340,0.206,0.342,0.320,0.305,0.171,0.101,south-southwest,2.1,No
2018/01/11,06:10,0.340,0.205,0.342,0.320,0.304,0.171,0.102,south,2.4,No
2018/01/11,06:20,0.340,0.205,0.344,0.321,0.303,0.170,0.102,south,2.3,No
2018/01/11,06:30,0.340,0.205,0.343,0.321,0.303,0.169,0.101,south-southwest,1.8,No
2018/01/11,06:40,0.341,0.206,0.343,0.322,0.304,0.170,0.101,south,3.5,No
2018/01/11,06:50,0.340,0.206,0.342,0.321,0.305,0.171,0.102,south,2.7,No
2018/01/11,07:00,0.340,0.205,0.342,0.320,0.305,0.170,0.101,south-southwest,1.9,No
2018/01/11,07:10,0.339,0.206,0.342,0.319,0.304,0.169,0.102,south,1.2,No
2018/01/11,07:20,0.340,0.205,0.343,0.319,0.302,0.170,0.101,south,1.7,No
2018/01/11,07:30,0.339,0.207,0.340,0.320,0.304,0.170,0.101,south-southwest,3.3,No
2018/01/11,07:40,0.341,0.206,0.341,0.321,0.304,0.170,0.101,southwest,2.3,No
2018/01/11,07:50,0.340,0.205,0.341,0.319,0.305,0.171,0.101,west-southwest,1.9,No
2018/01/11,08:00,0.340,0.206,0.342,0.319,0.303,0.169,0.101,southwest,3.7,No
2018/01/11,08:10,0.340,0.206,0.342,0.319,0.302,0.169,0.102,west-southwest,4.2,No
2018/01/11,08:20,0.340,0.205,0.343,0.320,0.303,0.170,0.101,west,1.1,No
2018/01/11,08:30,0.341,0.205,0.341,0.321,0.302,0.169,0.102,west,1.9,No
2018/01/11,08:40,0.341,0.206,0.342,0.319,0.305,0.170,0.101,west-southwest,2.3,No
2018/01/11,08:50,0.341,0.205,0.341,0.318,0.302,0.170,0.101,west,0.6,No
2018/01/11,09:00,0.339,0.206,0.343,0.320,0.304,0.170,0.101,west,2.7,No
2018/01/11,09:10,0.340,0.207,0.343,0.320,0.304,0.169,0.101,west,3.9,No
2018/01/11,09:20,0.341,0.205,0.341,0.319,0.304,0.169,0.101,west-northwest,4.1,No
2018/01/11,09:30,0.339,0.205,0.342,0.322,0.304,0.170,0.101,west,4.2,No
2018/01/11,09:40,0.341,0.205,0.343,0.319,0.305,0.171,0.101,west-southwest,5.0,No
2018/01/11,09:50,0.340,0.205,0.343,0.319,0.304,0.170,0.101,west-southwest,5.6,No
2018/01/11,10:00,0.340,0.206,0.342,0.320,0.303,0.171,0.101,west-southwest,3.9,No
2018/01/11,10:10,0.340,0.205,0.342,0.319,0.306,0.171,0.101,west-southwest,5.6,No
2018/01/11,10:20,0.340,0.205,0.342,0.320,0.304,0.170,0.101,west,5.1,No
2018/01/11,10:30,0.340,0.205,0.343,0.320,0.304,0.171,0.102,west,3.9,No
2018/01/11,10:40,0.339,0.205,0.343,0.320,0.306,0.170,0.100,west,3.2,No
2018/01/11,10:50,0.338,0.204,0.342,0.322,0.304,0.171,0.101,west,3.5,No
2018/01/11,11:00,0.338,0.207,0.342,0.319,0.305,0.171,0.101,west-northwest,4.8,No
2018/01/11,11:10,0.338,0.205,0.341,0.320,0.304,0.171,0.101,west,3.8,No
2018/01/11,11:20,0.340,0.204,0.341,0.320,0.305,0.172,0.102,west-southwest,3.2,No
2018/01/11,11:30,0.339,0.205,0.341,0.320,0.305,0.171,0.101,west-southwest,2.3,No
2018/01/11,11:40,0.339,0.206,0.342,0.320,0.304,0.171,0.101,west-southwest,1.9,No
2018/01/11,11:50,0.340,0.205,0.341,0.320,0.306,0.171,0.102,west,2.2,No
2018/01/11,12:00,0.338,0.205,0.340,0.321,0.304,0.170,0.102,west-southwest,1.8,No
2018/01/11,12:10,0.340,0.205,0.341,0.321,0.308,0.171,0.102,west-northwest,1.7,No
2018/01/11,12:20,0.342,0.207,0.341,0.320,0.305,0.170,0.102,west,0.9,No
2018/01/11,12:30,0.339,0.206,0.341,0.320,0.307,0.171,0.102,south-southeast,2.1,No
2018/01/11,12:40,0.340,0.206,0.341,0.321,0.307,0.171,0.101,south-southeast,3.0,No
2018/01/11,12:50,0.340,0.207,0.342,0.322,0.306,0.171,0.101,south-southeast,4.6,No
2018/01/11,13:00,0.341,0.206,0.341,0.321,0.306,0.171,0.102,south-southeast,3.4,No
2018/01/11,13:10,0.340,0.205,0.342,0.322,0.305,0.171,0.102,southeast,1.7,No
2018/01/11,13:20,0.341,0.206,0.342,0.324,0.305,0.171,0.102,southeast,2.3,No
2018/01/11,13:30,0.340,0.205,0.341,0.320,0.306,0.171,0.102,southeast,2.7,No
2018/01/11,13:40,0.342,0.206,0.340,0.321,0.306,0.171,0.103,east-southeast,3.4,No
2018/01/11,13:50,0.339,0.205,0.340,0.321,0.305,0.170,0.102,east-southeast,1.7,No
2018/01/11,14:00,0.340,0.206,0.341,0.321,0.305,0.171,0.102,east,0.7,No
2018/01/11,14:10,0.341,0.205,0.341,0.321,0.305,0.170,0.102,east-northeast,0.6,No
2018/01/11,14:20,0.340,0.205,0.343,0.321,0.304,0.171,0.102,northeast,1.7,No
2018/01/11,14:30,0.339,0.206,0.341,0.320,0.305,0.171,0.102,north-northeast,1.8,No
2018/01/11,14:40,0.342,0.206,0.342,0.321,0.303,0.171,0.102,north-northeast,1.2,No
2018/01/11,14:50,0.340,0.206,0.343,0.321,0.304,0.170,0.101,northeast,1.7,No
2018/01/11,15:00,0.339,0.205,0.341,0.319,0.305,0.168,0.101,northwest,2.3,No
2018/01/11,15:10,0.341,0.206,0.342,0.321,0.302,0.169,0.101,west-northwest,3.2,No
2018/01/11,15:20,0.340,0.206,0.343,0.320,0.306,0.170,0.101,west-northwest,1.2,No
2018/01/11,15:30,0.339,0.206,0.343,0.321,0.306,0.171,0.102,west,2.6,No
2018/01/11,15:40,0.340,0.205,0.342,0.321,0.304,0.171,0.101,west-northwest,2.6,No
2018/01/11,15:50,0.341,0.206,0.342,0.323,0.305,0.170,0.102,north-northwest,2.7,No
2018/01/11,16:00,0.341,0.206,0.342,0.320,0.305,0.170,0.101,north,1.7,No
2018/01/11,16:10,0.340,0.205,0.339,0.321,0.305,0.170,0.101,north,2.7,No
2018/01/11,16:20,0.341,0.207,0.344,0.321,0.304,0.171,0.102,north-northeast,8.7,No
2018/01/11,16:30,0.342,0.205,0.342,0.322,0.306,0.170,0.101,north-northeast,12.9,No
2018/01/11,16:40,0.341,0.206,0.343,0.321,0.305,0.172,0.101,north-northeast,12.5,No
2018/01/11,16:50,0.342,0.205,0.341,0.323,0.306,0.171,0.102,north-northeast,8.8,No
2018/01/11,17:00,0.341,0.207,0.342,0.322,0.307,0.171,0.102,north-northeast,9.3,No
2018/01/11,17:10,0.343,0.207,0.343,0.322,0.306,0.171,0.102,north-northeast,10.9,No
2018/01/11,17:20,0.341,0.205,0.343,0.322,0.307,0.171,0.101,north,7.7,No
2018/01/11,17:30,0.341,0.207,0.343,0.321,0.307,0.172,0.102,north,7.1,No
2018/01/11,17:40,0.340,0.206,0.342,0.323,0.305,0.170,0.102,north,5.6,No
2018/01/11,17:50,0.343,0.206,0.342,0.322,0.307,0.170,0.101,north,5.5,No
2018/01/11,18:00,0.340,0.206,0.343,0.322,0.305,0.172,0.102,north,4.5,No
2018/01/11,18:10,0.342,0.206,0.342,0.322,0.306,0.171,0.102,north,6.4,No
2018/01/11,18:20,0.341,0.206,0.344,0.320,0.307,0.170,0.101,north,6.8,No
2018/01/11,18:30,0.341,0.206,0.342,0.321,0.305,0.170,0.102,north,8.4,No
2018/01/11,18:40,0.340,0.206,0.342,0.322,0.306,0.171,0.102,north,8.3,No
2018/01/11,18:50,0.340,0.206,0.344,0.323,0.305,0.171,0.102,north,7.6,No
2018/01/11,19:00,0.342,0.206,0.345,0.322,0.307,0.171,0.101,north,6.6,No
2018/01/11,19:10,0.341,0.205,0.344,0.321,0.306,0.170,0.103,north,5.3,No
2018/01/11,19:20,0.342,0.206,0.343,0.321,0.307,0.172,0.101,north,5.9,No
2018/01/11,19:30,0.340,0.207,0.343,0.322,0.306,0.171,0.102,north,5.3,No
2018/01/11,19:40,0.341,0.207,0.343,0.322,0.305,0.171,0.102,north,6.3,No
2018/01/11,19:50,0.340,0.207,0.342,0.322,0.307,0.171,0.102,north,6.0,No
2018/01/11,20:00,0.342,0.206,0.342,0.322,0.307,0.171,0.101,north,4.3,No
2018/01/11,20:10,0.340,0.206,0.342,0.323,0.305,0.171,0.102,north,4.1,No
2018/01/11,20:20,0.341,0.207,0.343,0.322,0.306,0.171,0.102,north,5.7,No
2018/01/11,20:30,0.341,0.205,0.342,0.321,0.305,0.170,0.101,north,7.9,No
2018/01/11,20:40,0.341,0.207,0.342,0.321,0.304,0.171,0.102,north,7.7,No
2018/01/11,20:50,0.340,0.205,0.341,0.322,0.305,0.171,0.102,north,5.5,No
2018/01/11,21:00,0.342,0.206,0.343,0.321,0.307,0.170,0.102,north,5.7,No
2018/01/11,21:10,0.341,0.206,0.343,0.322,0.306,0.171,0.102,north,6.5,No
2018/01/11,21:20,0.341,0.206,0.341,0.323,0.304,0.171,0.102,north,6.5,No
2018/01/11,21:30,0.341,0.205,0.343,0.322,0.305,0.171,0.102,north,7.3,No
2018/01/11,21:40,0.340,0.206,0.344,0.323,0.305,0.170,0.103,north,7.0,No
2018/01/11,21:50,0.340,0.206,0.342,0.322,0.306,0.170,0.101,north,5.7,No
2018/01/11,22:00,0.341,0.206,0.343,0.322,0.305,0.171,0.102,north,4.8,No
2018/01/11,22:10,0.339,0.207,0.342,0.321,0.305,0.172,0.102,north,2.6,No
2018/01/11,22:20,0.342,0.206,0.343,0.322,0.304,0.171,0.102,north,4.8,No
2018/01/11,22:30,0.342,0.205,0.343,0.322,0.305,0.170,0.102,north,6.6,No
2018/01/11,22:40,0.340,0.206,0.342,0.320,0.305,0.170,0.102,north,7.6,No
2018/01/11,22:50,0.341,0.207,0.342,0.321,0.304,0.171,0.101,north-northwest,6.8,No
2018/01/11,23:00,0.340,0.205,0.344,0.321,0.305,0.170,0.102,north-northwest,6.7,No
2018/01/11,23:10,0.341,0.206,0.344,0.322,0.304,0.169,0.102,north-northwest,6.7,No
2018/01/11,23:20,0.339,0.206,0.342,0.323,0.304,0.170,0.101,north-northwest,6.3,No
2018/01/11,23:30,0.341,0.206,0.343,0.321,0.305,0.171,0.102,north-northwest,6.8,No
2018/01/11,23:40,0.341,0.206,0.342,0.321,0.304,0.171,0.102,north-northwest,7.5,No
2018/01/11,23:50,0.341,0.206,0.344,0.321,0.305,0.170,0.102,north-northwest,8.1,No
